{"data":{"norad_id":64891,"epoch":"2026-09-19T23:03:36.861120Z","epoch_age_seconds":61064,"freshness":"FRESH","line1":"1 64891U 25155R   26262.96084330  .00010695  00000+0  31099-3 0  9992","line2":"2 64891  97.4656 233.3859 0005416 180.5495 179.5743 15.35620543 95350","mean_motion":15.35620543,"eccentricity":0.0005416,"inclination_deg":97.4656,"raan_deg":233.3859,"arg_perigee_deg":180.5495,"mean_anomaly_deg":179.5743,"bstar":0.00031099,"rev_number":9535,"period_min":93.773165940253,"perigee_km":455.37489661481,"apogee_km":462.7809678294,"semimajor_km":6837.2149322221,"source":"CELESTRAK","updated_at":"2026-09-20T09:00:45.267023Z"}}